When you browse on this site, cookies collect data to enhance your experience and personalize the content and advertising you see.
Visit our Privacy Policy to learn more. By continuing to use the site, you agree to this use of cookies and data.
  • In United Kingdom
  • List of Countries
  • For 7 days
  • Water Temperature
  • Satellite Maps
  • Weather Map
  • Weather Widgets
  • user-avatar
    Login

    Hourly Weather Giumri

    Today, 20 March, Wednesday

    Time Temperature Precipitation Wind Pressure Humidity
    00:00 -2°C° 0 mm 1 mps 634 mmHg 80%
    01:00 -2°C° 0 mm 1 mps 633 mmHg 79%
    02:00 -2°C° 0 mm 1 mps 633 mmHg 78%
    03:00 -2°C° 0 mm 1 mps 632 mmHg 78%
    04:00 -2°C° 0 mm 1 mps 632 mmHg 77%
    05:00 -2°C° 0 mm 1 mps 632 mmHg 76%
    06:00 -2°C° 0 mm 1 mps 632 mmHg 75%
    07:00 -1°C° 0 mm 1 mps 633 mmHg 73%
    08:00 +1°C° 0 mm 1 mps 633 mmHg 70%
    09:00 +3°C° 0 mm 1 mps 633 mmHg 69%
    10:00 +4°C° 0.1 mm 1 mps 633 mmHg 71%
    11:00 +4°C° 0.1 mm 1 mps 633 mmHg 72%
    12:00 +5°C° 0.1 mm 1 mps 633 mmHg 74%
    13:00 +6°C° 0.1 mm 1 mps 633 mmHg 74%
    14:00 +5°C° 0.1 mm 2 mps 633 mmHg 73%
    15:00 +5°C° 0.1 mm 2 mps 633 mmHg 73%
    16:00 +5°C° 0.1 mm 2 mps 633 mmHg 74%
    17:00 +4°C° 0.1 mm 2 mps 632 mmHg 74%
    18:00 +3°C° 0.1 mm 2 mps 632 mmHg 75%
    19:00 +3°C° 0.1 mm 2 mps 633 mmHg 77%
    20:00 +2°C° 0.1 mm 2 mps 633 mmHg 79%
    21:00 +2°C° 0.1 mm 2 mps 633 mmHg 81%
    22:00 +1°C° 0.1 mm 2 mps 633 mmHg 81%
    23:00 +1°C° 0.1 mm 2 mps 633 mmHg 82%

    Tomorrow, 21 March, Thursday

    Time Temperature Precipitation Wind Pressure Humidity
    00:00 -1°C° 0.1 mm 2 mps 633 mmHg 83%
    01:00 -1°C° 0 mm 2 mps 633 mmHg 83%
    02:00 -1°C° 0 mm 2 mps 633 mmHg 83%
    03:00 -2°C° 0 mm 2 mps 633 mmHg 83%
    04:00 -2°C° 0 mm 2 mps 633 mmHg 82%
    05:00 -2°C° 0 mm 2 mps 633 mmHg 81%
    06:00 -2°C° 0 mm 2 mps 633 mmHg 80%
    07:00 +1°C° 0 mm 1 mps 633 mmHg 77%
    08:00 +3°C° 0 mm 1 mps 634 mmHg 74%
    09:00 +4°C° 0 mm 1 mps 634 mmHg 71%
    10:00 +5°C° 0 mm 1 mps 634 mmHg 70%
    11:00 +6°C° 0 mm 1 mps 634 mmHg 69%
    12:00 +7°C° 0 mm 1 mps 634 mmHg 68%
    13:00 +7°C° 0 mm 1 mps 634 mmHg 67%
    14:00 +6°C° 0 mm 2 mps 634 mmHg 65%
    15:00 +6°C° 0 mm 2 mps 634 mmHg 64%
    16:00 +5°C° 0 mm 2 mps 633 mmHg 65%
    17:00 +4°C° 0 mm 2 mps 633 mmHg 67%
    18:00 +3°C° 0 mm 2 mps 633 mmHg 68%
    19:00 +3°C° 0 mm 2 mps 633 mmHg 70%
    20:00 +2°C° 0 mm 2 mps 634 mmHg 73%
    21:00 +1°C° 0 mm 2 mps 634 mmHg 75%
    22:00 +1°C° 0 mm 2 mps 634 mmHg 76%
    23:00 -1°C° 0 mm 2 mps 634 mmHg 77%

    Day after tomorrow, 22 March, Friday

    Time Temperature Precipitation Wind Pressure Humidity
    00:00 -1°C° 0 mm 2 mps 634 mmHg 78%
    01:00 -1°C° 0 mm 2 mps 634 mmHg 79%
    02:00 -2°C° 0 mm 2 mps 634 mmHg 79%
    03:00 -2°C° 0 mm 2 mps 634 mmHg 80%
    04:00 -2°C° 0 mm 2 mps 634 mmHg 80%
    05:00 -3°C° 0 mm 2 mps 634 mmHg 79%
    06:00 -3°C° 0 mm 2 mps 634 mmHg 79%
    07:00 -2°C° 0 mm 2 mps 634 mmHg 75%
    08:00 -1°C° 0 mm 2 mps 634 mmHg 70%
    09:00 +1°C° 0 mm 2 mps 635 mmHg 65%
    10:00 +2°C° 0 mm 2 mps 634 mmHg 61%
    11:00 +3°C° 0 mm 2 mps 634 mmHg 56%
    12:00 +4°C° 0 mm 2 mps 634 mmHg 52%
    13:00 +4°C° 0 mm 2 mps 634 mmHg 52%
    14:00 +4°C° 0 mm 2 mps 633 mmHg 52%
    15:00 +5°C° 0 mm 2 mps 633 mmHg 52%
    16:00 +4°C° 0 mm 2 mps 633 mmHg 56%
    17:00 +3°C° 0 mm 2 mps 633 mmHg 60%
    18:00 +2°C° 0 mm 2 mps 633 mmHg 63%
    19:00 +1°C° 0 mm 2 mps 633 mmHg 67%
    20:00 -1°C° 0 mm 2 mps 633 mmHg 71%
    21:00 -2°C° 0 mm 2 mps 634 mmHg 75%
    22:00 -3°C° 0 mm 2 mps 634 mmHg 74%
    23:00 -3°C° 0 mm 2 mps 634 mmHg 74%

    23 March, Saturday

    Time Temperature Precipitation Wind Pressure Humidity
    00:00 -4°C° 0 mm 2 mps 634 mmHg 74%
    01:00 -4°C° 0 mm 2 mps 634 mmHg 70%
    02:00 -5°C° 0 mm 2 mps 633 mmHg 66%
    03:00 -5°C° 0 mm 2 mps 633 mmHg 63%
    04:00 -4°C° 0 mm 1 mps 633 mmHg 60%
    05:00 -4°C° 0 mm 1 mps 633 mmHg 57%
    06:00 -4°C° 0 mm 1 mps 633 mmHg 55%
    07:00 -2°C° 0 mm 1 mps 634 mmHg 53%
    08:00 -3°C° 0 mm 2 mps 634 mmHg 51%
    09:00 -2°C° 0 mm 2 mps 634 mmHg 49%
    10:00 -1°C° 0 mm 2 mps 634 mmHg 47%
    11:00 +1°C° 0 mm 2 mps 634 mmHg 45%
    12:00 +1°C° 0 mm 3 mps 633 mmHg 42%
    13:00 +2°C° 0 mm 3 mps 633 mmHg 44%
    14:00 +2°C° 0 mm 3 mps 632 mmHg 45%
    15:00 +2°C° 0 mm 3 mps 632 mmHg 47%
    16:00 +2°C° 0 mm 2 mps 632 mmHg 51%
    17:00 +2°C° 0 mm 2 mps 632 mmHg 54%
    18:00 +1°C° 0 mm 2 mps 631 mmHg 58%
    19:00 -1°C° 0 mm 2 mps 631 mmHg 61%
    20:00 -2°C° 0 mm 2 mps 632 mmHg 63%
    21:00 -3°C° 0 mm 2 mps 632 mmHg 66%
    22:00 -3°C° 0 mm 2 mps 631 mmHg 67%
    23:00 -3°C° 0 mm 2 mps 631 mmHg 67%

    24 March, Sunday

    Time Temperature Precipitation Wind Pressure Humidity
    00:00 -4°C° 0 mm 2 mps 631 mmHg 68%
    01:00 -4°C° 0 mm 2 mps 631 mmHg 68%
    02:00 -4°C° 0 mm 2 mps 631 mmHg 68%
    03:00 -4°C° 0 mm 2 mps 631 mmHg 68%
    04:00 -4°C° 0 mm 2 mps 631 mmHg 68%
    05:00 -5°C° 0 mm 2 mps 631 mmHg 68%
    06:00 -5°C° 0 mm 2 mps 632 mmHg 68%
    07:00 -3°C° 0 mm 2 mps 632 mmHg 65%
    08:00 -2°C° 0 mm 2 mps 633 mmHg 61%
    09:00 -1°C° 0 mm 3 mps 633 mmHg 57%
    10:00 0°C° 0 mm 3 mps 633 mmHg 55%
    11:00 +1°C° 0 mm 3 mps 634 mmHg 53%
    12:00 +2°C° 0 mm 3 mps 634 mmHg 52%
    13:00 +3°C° 0 mm 4 mps 633 mmHg 52%
    14:00 +3°C° 0 mm 4 mps 633 mmHg 53%
    15:00 +3°C° 0 mm 4 mps 633 mmHg 53%
    16:00 +2°C° 0 mm 3 mps 633 mmHg 57%
    17:00 +2°C° 0 mm 3 mps 633 mmHg 61%
    18:00 +2°C° 0 mm 2 mps 633 mmHg 64%
    19:00 +1°C° 0 mm 2 mps 633 mmHg 67%
    20:00 -1°C° 0 mm 2 mps 633 mmHg 69%
    21:00 -2°C° 0 mm 2 mps 633 mmHg 71%
    22:00 -2°C° 0 mm 2 mps 633 mmHg 71%
    23:00 -1°C° 0 mm 1 mps 633 mmHg 70%

    25 March, Monday

    Time Temperature Precipitation Wind Pressure Humidity
    00:00 -1°C° 0 mm 1 mps 633 mmHg 70%
    01:00 -1°C° 0 mm 1 mps 632 mmHg 69%
    02:00 -1°C° 0 mm 1 mps 632 mmHg 68%
    03:00 -1°C° 0 mm 1 mps 632 mmHg 67%
    04:00 -1°C° 0 mm 1 mps 632 mmHg 67%
    05:00 -1°C° 0 mm 1 mps 632 mmHg 67%
    06:00 -1°C° 0 mm 1 mps 632 mmHg 67%
    07:00 0°C° 0 mm 1 mps 632 mmHg 64%
    08:00 +1°C° 0 mm 2 mps 633 mmHg 61%
    09:00 +3°C° 0 mm 2 mps 633 mmHg 58%
    10:00 +4°C° 0 mm 2 mps 633 mmHg 56%
    11:00 +5°C° 0 mm 2 mps 633 mmHg 53%
    12:00 +6°C° 0 mm 2 mps 633 mmHg 51%
    13:00 +7°C° 0 mm 2 mps 633 mmHg 51%
    14:00 +7°C° 0 mm 2 mps 632 mmHg 51%
    15:00 +8°C° 0 mm 2 mps 632 mmHg 51%
    16:00 +7°C° 0 mm 2 mps 632 mmHg 53%
    17:00 +7°C° 0 mm 1 mps 632 mmHg 55%
    18:00 +6°C° 0 mm 1 mps 632 mmHg 57%
    19:00 +5°C° 0 mm 1 mps 632 mmHg 59%
    20:00 +4°C° 0 mm 1 mps 633 mmHg 62%
    21:00 +3°C° 0 mm 1 mps 633 mmHg 64%
    22:00 +3°C° 0 mm 1 mps 633 mmHg 66%
    23:00 +2°C° 0 mm 1 mps 633 mmHg 68%
    Show more